Time,TemperatureF,DewpointF,PressureIn,WindDirection,WindDirectionDegrees,WindSpeedMPH,WindSpeedGustMPH,Humidity,HourlyPrecipIn,Conditions,Clouds,dailyrainin,SoftwareType,DateUTC
2013-10-03 03:12:00,70.0,66.0,29.87,SSE,156,0.0,-999.0,87,-99.99,,,-99.99,,2013-10-03 08:12:00,
2013-10-03 03:22:00,69.0,65.0,29.87,SSE,156,0.0,-999.0,88,-99.99,,,-99.99,,2013-10-03 08:22:00,
2013-10-03 03:42:00,69.0,66.0,29.86,SSE,156,0.0,-999.0,89,-99.99,,,-99.99,,2013-10-03 08:42:00,
2013-10-03 03:52:00,68.0,65.0,29.86,SSE,156,0.0,-999.0,90,-99.99,,,-99.99,,2013-10-03 08:52:00,
2013-10-03 04:12:00,68.0,65.0,29.86,SSE,156,0.0,-999.0,91,-99.99,,,-99.99,,2013-10-03 09:12:00,
2013-10-03 04:22:00,68.0,66.0,29.86,SSE,156,0.0,-999.0,92,-99.99,,,-99.99,,2013-10-03 09:22:00,
2013-10-03 04:53:00,67.0,65.0,29.86,SSE,156,0.0,-999.0,93,-99.99,,,-99.99,,2013-10-03 09:53:00,
2013-10-03 05:23:00,67.0,65.0,29.85,SSE,156,0.0,-999.0,94,-99.99,,,-99.99,,2013-10-03 10:23:00,
2013-10-03 05:52:00,67.0,65.0,29.85,SSE,156,0.0,-999.0,94,-99.99,,,-99.99,,2013-10-03 10:52:00,
2013-10-03 06:12:00,67.0,66.0,29.85,SSE,156,0.0,-999.0,95,-99.99,,,-99.99,,2013-10-03 11:12:00,
2013-10-03 06:23:00,67.0,66.0,29.86,SSE,156,0.0,-999.0,95,-99.99,,,-99.99,,2013-10-03 11:23:00,
2013-10-03 06:52:00,67.0,66.0,29.85,SSE,156,0.0,-999.0,95,-99.99,,,-99.99,,2013-10-03 11:52:00,
2013-10-03 07:22:00,67.0,66.0,29.84,SSE,156,0.0,-999.0,95,-99.99,,,-99.99,,2013-10-03 12:22:00,
2013-10-03 07:42:00,67.0,66.0,29.85,SSE,156,0.0,-999.0,95,-99.99,,,-99.99,,2013-10-03 12:42:00,
2013-10-03 07:52:00,67.0,66.0,29.85,SSE,156,0.0,-999.0,95,-99.99,,,-99.99,,2013-10-03 12:52:00,
2013-10-03 08:11:00,67.0,66.0,29.83,SE,139,0.0,-999.0,95,-99.99,,,-99.99,,2013-10-03 13:11:00,
2013-10-03 08:22:00,67.0,66.0,29.85,SE,139,0.0,-999.0,96,-99.99,,,-99.99,,2013-10-03 13:22:00,
2013-10-03 08:52:00,67.0,66.0,29.85,SE,139,0.0,-999.0,96,-99.99,,,-99.99,,2013-10-03 13:52:00,
2013-10-03 09:11:00,67.0,66.0,29.85,SE,139,0.0,-999.0,97,-99.99,,,-99.99,,2013-10-03 14:11:00,
2013-10-03 09:22:00,67.0,66.0,29.86,SE,139,0.0,-999.0,97,-99.99,,,-99.99,,2013-10-03 14:22:00,
2013-10-03 09:52:00,68.0,67.0,29.86,SE,139,0.0,-999.0,97,-99.99,,,-99.99,,2013-10-03 14:52:00,
2013-10-03 10:11:00,69.0,68.0,29.86,SE,139,0.0,-999.0,97,-99.99,,,-99.99,,2013-10-03 15:11:00,
2013-10-03 10:22:00,69.0,68.0,29.87,SE,139,0.0,-999.0,97,-99.99,,,-99.99,,2013-10-03 15:22:00,
2013-10-03 10:43:00,69.0,68.0,29.87,SE,139,0.0,-999.0,97,-99.99,,,-99.99,,2013-10-03 15:43:00,
2013-10-03 10:53:00,69.0,68.0,29.86,SE,139,0.0,-999.0,97,-99.99,,,-99.99,,2013-10-03 15:53:00,
2013-10-03 11:12:00,70.0,69.0,29.86,SSE,161,0.0,-999.0,97,-99.99,,,-99.99,,2013-10-03 16:12:00,
2013-10-03 11:23:00,70.0,69.0,29.85,SSE,161,0.0,-999.0,97,-99.99,,,-99.99,,2013-10-03 16:23:00,
2013-10-03 11:42:00,71.0,70.0,29.85,SSW,209,0.0,-999.0,97,-99.99,,,-99.99,,2013-10-03 16:42:00,
2013-10-03 11:53:00,71.0,69.0,29.84,SSE,162,0.0,-999.0,95,-99.99,,,-99.99,,2013-10-03 16:53:00,
2013-10-03 12:12:00,71.0,69.0,29.84,SSE,162,0.0,-999.0,94,-99.99,,,-99.99,,2013-10-03 17:12:00,
2013-10-03 12:22:00,71.0,69.0,29.83,SSE,162,0.0,-999.0,93,-99.99,,,-99.99,,2013-10-03 17:22:00,
2013-10-03 12:42:00,72.0,70.0,29.84,SSE,162,0.0,-999.0,92,-99.99,,,-99.99,,2013-10-03 17:42:00,
2013-10-03 12:52:00,72.0,69.0,29.83,SSE,162,0.0,-999.0,91,-99.99,,,-99.99,,2013-10-03 17:52:00,
2013-10-03 13:12:00,72.0,69.0,29.83,SSE,162,0.0,-999.0,91,-99.99,,,-99.99,,2013-10-03 18:12:00,
2013-10-03 13:22:00,73.0,70.0,29.83,SSE,159,1.0,-999.0,89,-99.99,,,-99.99,,2013-10-03 18:22:00,
2013-10-03 13:42:00,73.0,69.0,29.81,SSE,151,0.0,-999.0,86,-99.99,,,-99.99,,2013-10-03 18:42:00,
2013-10-03 13:52:00,73.0,68.0,29.80,SSE,152,0.0,-999.0,85,-99.99,,,-99.99,,2013-10-03 18:52:00,
2013-10-03 14:11:00,74.0,70.0,29.79,SSE,155,0.0,-999.0,86,-99.99,,,-99.99,,2013-10-03 19:11:00,
2013-10-03 14:22:00,74.0,69.0,29.78,SSE,159,0.0,-999.0,84,-99.99,,,-99.99,,2013-10-03 19:22:00,
2013-10-03 14:42:00,74.0,68.0,29.79,SSE,159,0.0,-999.0,83,-99.99,,,-99.99,,2013-10-03 19:42:00,
2013-10-03 14:52:00,75.0,69.0,29.78,SSE,148,1.0,-999.0,82,-99.99,,,-99.99,,2013-10-03 19:52:00,
2013-10-03 15:11:00,75.0,69.0,29.78,ESE,123,1.0,-999.0,81,-99.99,,,-99.99,,2013-10-03 20:11:00,
2013-10-03 15:21:00,75.0,68.0,29.78,SSE,159,1.0,-999.0,79,-99.99,,,-99.99,,2013-10-03 20:21:00,
2013-10-03 15:42:00,75.0,68.0,29.78,SSE,164,0.0,-999.0,80,-99.99,,,-99.99,,2013-10-03 20:42:00,
2013-10-03 15:52:00,76.0,69.0,29.78,SSE,159,0.0,-999.0,79,-99.99,,,-99.99,,2013-10-03 20:52:00,
2013-10-03 16:12:00,76.0,69.0,29.78,SSE,165,0.0,-999.0,79,-99.99,,,-99.99,,2013-10-03 21:12:00,
2013-10-03 16:21:00,76.0,69.0,29.78,SSE,150,0.0,-999.0,79,-99.99,,,-99.99,,2013-10-03 21:21:00,
2013-10-03 16:43:00,76.0,69.0,29.77,SSE,151,0.0,-999.0,78,-99.99,,,-99.99,,2013-10-03 21:43:00,
2013-10-03 16:54:00,77.0,69.0,29.76,ENE,58,0.0,-999.0,76,-99.99,,,-99.99,,2013-10-03 21:54:00,
2013-10-03 17:13:00,77.0,69.0,29.78,SSE,155,0.0,-999.0,76,-99.99,,,-99.99,,2013-10-03 22:13:00,
2013-10-03 17:23:00,77.0,69.0,29.78,SSE,157,0.0,-999.0,77,-99.99,,,-99.99,,2013-10-03 22:23:00,
2013-10-03 17:43:00,77.0,69.0,29.79,SSE,168,0.0,-999.0,77,-99.99,,,-99.99,,2013-10-03 22:43:00,
2013-10-03 17:54:00,76.0,68.0,29.78,SSE,168,0.0,-999.0,77,-99.99,,,-99.99,,2013-10-03 22:54:00,
2013-10-03 18:12:00,76.0,69.0,29.78,SSE,168,0.0,-999.0,78,-99.99,,,-99.99,,2013-10-03 23:12:00,
2013-10-03 18:22:00,76.0,69.0,29.78,SSE,168,0.0,-999.0,79,-99.99,,,-99.99,,2013-10-03 23:22:00,
2013-10-03 18:43:00,76.0,69.0,29.78,SSE,168,0.0,-999.0,80,-99.99,,,-99.99,,2013-10-03 23:43:00,
2013-10-03 18:52:00,76.0,70.0,29.78,SSE,168,0.0,-999.0,81,-99.99,,,-99.99,,2013-10-03 23:52:00,
2013-10-03 19:12:00,75.0,69.0,29.78,SSE,168,0.0,-999.0,82,-99.99,,,-99.99,,2013-10-04 00:12:00,
2013-10-03 19:22:00,74.0,68.0,29.78,SSE,168,0.0,-999.0,83,-99.99,,,-99.99,,2013-10-04 00:22:00,
2013-10-03 19:42:00,73.0,68.0,29.79,SSE,168,0.0,-999.0,84,-99.99,,,-99.99,,2013-10-04 00:42:00,
2013-10-03 19:52:00,73.0,69.0,29.79,SSE,168,0.0,-999.0,86,-99.99,,,-99.99,,2013-10-04 00:52:00,
2013-10-03 20:12:00,72.0,68.0,29.80,SSE,168,0.0,-999.0,88,-99.99,,,-99.99,,2013-10-04 01:12:00,
2013-10-03 20:22:00,72.0,68.0,29.81,SSE,168,0.0,-999.0,87,-99.99,,,-99.99,,2013-10-04 01:22:00,
2013-10-03 20:42:00,72.0,68.0,29.81,SSE,168,0.0,-999.0,86,-99.99,,,-99.99,,2013-10-04 01:42:00,
2013-10-03 20:52:00,72.0,67.0,29.81,SSE,168,0.0,-999.0,83,-99.99,,,-99.99,,2013-10-04 01:52:00,
2013-10-03 21:12:00,71.0,65.0,29.82,SE,144,0.0,-999.0,81,-99.99,,,-99.99,,2013-10-04 02:12:00,
2013-10-03 21:22:00,71.0,64.0,29.82,SSE,161,0.0,-999.0,79,-99.99,,,-99.99,,2013-10-04 02:22:00,
2013-10-03 21:43:00,70.0,64.0,29.82,SSE,161,0.0,-999.0,81,-99.99,,,-99.99,,2013-10-04 02:43:00,
2013-10-03 21:52:00,69.0,63.0,29.83,SSE,161,0.0,-999.0,82,-99.99,,,-99.99,,2013-10-04 02:52:00,
2013-10-03 22:22:00,69.0,64.0,29.85,SSE,161,0.0,-999.0,83,-99.99,,,-99.99,,2013-10-04 03:22:00,
2013-10-03 22:44:00,69.0,64.0,29.86,East,94,0.0,-999.0,84,-99.99,,,-99.99,,2013-10-04 03:44:00,
2013-10-03 22:57:00,69.0,64.0,29.85,SE,137,0.0,-999.0,84,-99.99,,,-99.99,,2013-10-04 03:57:00,
2013-10-03 23:58:00,69.0,64.0,29.85,SE,128,0.0,-999.0,83,-99.99,,,-99.99,,2013-10-04 04:58:00,